Time,TemperatureF,DewpointF,PressureIn,WindDirection,WindDirectionDegrees,WindSpeedMPH,WindSpeedGustMPH,Humidity,HourlyPrecipIn,Conditions,Clouds,dailyrainin,SoftwareType,DateUTC
2013-07-12 00:01:00,81.1,73.2,29.86,South,184,2.0,6.0,77,0.00,,,0.00,meteohub,2013-07-12 05:01:00,
2013-07-12 00:07:00,81.1,73.2,29.86,South,174,3.0,6.0,77,0.00,,,0.00,meteohub,2013-07-12 05:07:00,
2013-07-12 00:12:00,81.1,73.6,29.87,South,181,0.0,6.0,78,0.00,,,0.00,meteohub,2013-07-12 05:12:00,
2013-07-12 00:17:00,81.1,73.6,29.87,SE,142,3.0,7.0,78,0.00,,,0.00,meteohub,2013-07-12 05:17:00,
2013-07-12 00:22:00,81.1,73.6,29.87,South,175,2.0,7.0,78,0.00,,,0.00,meteohub,2013-07-12 05:22:00,
2013-07-12 00:27:00,81.1,73.2,29.87,SSE,161,1.0,7.0,77,0.00,,,0.00,meteohub,2013-07-12 05:27:00,
2013-07-12 00:32:00,81.1,73.2,29.87,South,172,0.0,6.0,77,0.00,,,0.00,meteohub,2013-07-12 05:32:00,
2013-07-12 00:38:00,81.0,73.4,29.87,SSE,154,1.0,6.0,78,0.00,,,0.00,meteohub,2013-07-12 05:38:00,
2013-07-12 00:43:00,81.0,73.4,29.87,SE,135,0.0,6.0,78,0.00,,,0.00,meteohub,2013-07-12 05:43:00,
2013-07-12 00:48:00,80.8,73.2,29.87,SSE,155,2.0,6.0,78,0.00,,,0.00,meteohub,2013-07-12 05:48:00,
2013-07-12 00:54:00,80.8,73.2,29.87,SSE,167,0.0,4.0,78,0.00,,,0.00,meteohub,2013-07-12 05:54:00,
2013-07-12 00:59:00,80.4,73.2,29.87,SE,143,1.0,4.0,79,0.00,,,0.00,meteohub,2013-07-12 05:59:00,
2013-07-12 01:04:00,80.4,73.8,29.86,SE,136,3.0,4.0,80,0.00,,,0.00,meteohub,2013-07-12 06:04:00,
2013-07-12 01:10:00,80.2,73.6,29.86,SE,130,1.0,4.0,80,0.00,,,0.00,meteohub,2013-07-12 06:10:00,
2013-07-12 01:15:00,80.2,73.6,29.87,SE,138,1.0,4.0,80,0.00,,,0.00,meteohub,2013-07-12 06:15:00,
2013-07-12 01:20:00,80.1,73.0,29.86,SE,129,0.0,4.0,79,0.00,,,0.00,meteohub,2013-07-12 06:20:00,
2013-07-12 01:25:00,79.9,73.2,29.86,SE,129,0.0,4.0,80,0.00,,,0.00,meteohub,2013-07-12 06:25:00,
2013-07-12 01:31:00,79.5,72.9,29.86,SSE,161,2.0,5.0,80,0.00,,,0.00,meteohub,2013-07-12 06:31:00,
2013-07-12 01:36:00,79.3,73.0,29.86,South,178,2.0,5.0,81,0.00,,,0.00,meteohub,2013-07-12 06:36:00,
2013-07-12 01:41:00,79.3,73.0,29.86,South,178,1.0,5.0,81,0.00,,,0.00,meteohub,2013-07-12 06:41:00,
2013-07-12 01:47:00,79.2,72.9,29.86,South,171,0.0,5.0,81,0.00,,,0.00,meteohub,2013-07-12 06:47:00,
2013-07-12 01:52:00,79.0,73.0,29.86,SSE,167,2.0,5.0,82,0.00,,,0.00,meteohub,2013-07-12 06:52:00,
2013-07-12 01:57:00,79.0,73.0,29.86,South,181,3.0,4.0,82,0.00,,,0.00,meteohub,2013-07-12 06:57:00,
2013-07-12 02:02:00,79.0,73.0,29.86,SSW,194,0.0,4.0,82,0.00,,,0.00,meteohub,2013-07-12 07:02:00,
2013-07-12 02:07:00,78.8,72.9,29.86,SSW,194,0.0,4.0,82,0.00,,,0.00,meteohub,2013-07-12 07:07:00,
2013-07-12 02:12:00,78.4,72.5,29.86,SSW,194,0.0,4.0,82,0.00,,,0.00,meteohub,2013-07-12 07:12:00,
2013-07-12 02:17:00,78.3,72.7,29.86,SSW,194,0.0,4.0,83,0.00,,,0.00,meteohub,2013-07-12 07:17:00,
2013-07-12 02:22:00,78.3,73.0,29.86,SSW,194,0.0,4.0,84,0.00,,,0.00,meteohub,2013-07-12 07:22:00,
2013-07-12 02:27:00,78.1,72.9,29.86,SSW,194,0.0,0.0,84,0.00,,,0.00,meteohub,2013-07-12 07:27:00,
2013-07-12 02:32:00,77.9,72.7,29.86,SSW,194,0.0,0.0,84,0.00,,,0.00,meteohub,2013-07-12 07:32:00,
2013-07-12 02:37:00,77.9,73.0,29.86,SSW,194,0.0,0.0,85,0.00,,,0.00,meteohub,2013-07-12 07:37:00,
2013-07-12 02:42:00,78.1,72.9,29.86,South,190,0.0,0.0,84,0.00,,,0.00,meteohub,2013-07-12 07:42:00,
2013-07-12 02:47:00,77.9,72.7,29.86,South,190,0.0,1.0,84,0.00,,,0.00,meteohub,2013-07-12 07:47:00,
2013-07-12 02:52:00,77.7,72.9,29.86,South,190,0.0,1.0,85,0.00,,,0.00,meteohub,2013-07-12 07:52:00,
2013-07-12 02:57:00,77.7,72.9,29.86,South,190,0.0,1.0,85,0.00,,,0.00,meteohub,2013-07-12 07:57:00,
2013-07-12 03:02:00,77.7,72.9,29.86,South,190,0.0,1.0,85,0.00,,,0.00,meteohub,2013-07-12 08:02:00,
2013-07-12 03:07:00,77.7,72.9,29.86,South,188,0.0,1.0,85,0.00,,,0.00,meteohub,2013-07-12 08:07:00,
2013-07-12 03:12:00,77.5,72.7,29.86,South,188,0.0,1.0,85,0.00,,,0.00,meteohub,2013-07-12 08:12:00,
2013-07-12 03:17:00,77.4,72.9,29.86,South,188,0.0,1.0,86,0.00,,,0.00,meteohub,2013-07-12 08:17:00,
2013-07-12 03:23:00,77.4,72.5,29.86,South,188,0.0,1.0,85,0.00,,,0.00,meteohub,2013-07-12 08:23:00,
2013-07-12 03:28:00,77.2,72.7,29.85,South,188,0.0,1.0,86,0.00,,,0.00,meteohub,2013-07-12 08:28:00,
2013-07-12 03:33:00,77.2,72.7,29.86,South,188,0.0,1.0,86,0.00,,,0.00,meteohub,2013-07-12 08:33:00,
2013-07-12 03:39:00,77.0,72.5,29.86,South,188,0.0,0.0,86,0.00,,,0.00,meteohub,2013-07-12 08:39:00,
2013-07-12 03:44:00,77.0,72.5,29.85,South,188,0.0,0.0,86,0.00,,,0.00,meteohub,2013-07-12 08:44:00,
2013-07-12 03:49:00,77.0,72.5,29.86,South,188,0.0,1.0,86,0.00,,,0.00,meteohub,2013-07-12 08:49:00,
2013-07-12 03:54:00,76.8,72.3,29.85,South,188,0.0,1.0,86,0.00,,,0.00,meteohub,2013-07-12 08:54:00,
2013-07-12 04:00:00,76.8,72.3,29.85,South,188,0.0,0.0,86,0.00,,,0.00,meteohub,2013-07-12 09:00:00,
2013-07-12 04:05:00,76.6,72.5,29.86,South,188,0.0,0.0,87,0.00,,,0.00,meteohub,2013-07-12 09:05:00,
2013-07-12 04:10:00,76.6,72.9,29.86,South,188,0.0,0.0,88,0.00,,,0.00,meteohub,2013-07-12 09:10:00,
2013-07-12 04:15:00,76.8,73.4,29.86,South,188,0.0,0.0,89,0.00,,,0.00,meteohub,2013-07-12 09:15:00,
2013-07-12 04:21:00,76.6,73.2,29.86,South,188,0.0,1.0,89,0.00,,,0.00,meteohub,2013-07-12 09:21:00,
2013-07-12 04:26:00,76.5,73.0,29.86,South,188,0.0,1.0,89,0.00,,,0.00,meteohub,2013-07-12 09:26:00,
2013-07-12 04:31:00,76.5,73.0,29.86,South,188,0.0,1.0,89,0.00,,,0.00,meteohub,2013-07-12 09:31:00,
2013-07-12 04:37:00,76.6,72.9,29.86,South,186,0.0,2.0,88,0.00,,,0.00,meteohub,2013-07-12 09:37:00,
2013-07-12 04:42:00,76.8,72.7,29.86,South,186,0.0,2.0,87,0.00,,,0.00,meteohub,2013-07-12 09:42:00,
2013-07-12 04:47:00,76.6,72.5,29.86,South,186,0.0,2.0,87,0.00,,,0.00,meteohub,2013-07-12 09:47:00,
2013-07-12 04:52:00,76.6,72.5,29.86,South,186,0.0,2.0,87,0.00,,,0.00,meteohub,2013-07-12 09:52:00,
2013-07-12 04:58:00,76.6,72.5,29.86,South,186,0.0,2.0,87,0.00,,,0.00,meteohub,2013-07-12 09:58:00,
2013-07-12 05:03:00,76.8,72.7,29.86,South,186,0.0,0.0,87,0.00,,,0.00,meteohub,2013-07-12 10:03:00,
2013-07-12 05:08:00,76.8,72.7,29.86,SSE,156,0.0,0.0,87,0.00,,,0.00,meteohub,2013-07-12 10:08:00,
2013-07-12 05:14:00,77.0,72.9,29.86,SSE,155,0.0,0.0,87,0.00,,,0.00,meteohub,2013-07-12 10:14:00,
2013-07-12 05:19:00,76.8,72.7,29.86,SSE,155,0.0,0.0,87,0.00,,,0.00,meteohub,2013-07-12 10:19:00,
2013-07-12 05:25:00,76.6,72.1,29.86,SSE,155,0.0,2.0,86,0.00,,,0.00,meteohub,2013-07-12 10:25:00,
2013-07-12 05:30:00,76.5,72.3,29.86,SSE,155,0.0,2.0,87,0.00,,,0.00,meteohub,2013-07-12 10:30:00,
2013-07-12 05:35:00,76.5,72.3,29.86,SSE,155,0.0,2.0,87,0.00,,,0.00,meteohub,2013-07-12 10:35:00,
2013-07-12 05:41:00,76.5,72.3,29.86,SSE,155,0.0,2.0,87,0.00,,,0.00,meteohub,2013-07-12 10:41:00,
2013-07-12 05:46:00,76.3,72.1,29.87,SSE,155,0.0,2.0,87,0.00,,,0.00,meteohub,2013-07-12 10:46:00,
2013-07-12 05:51:00,76.3,72.5,29.87,SE,144,1.0,2.0,88,0.00,,,0.00,meteohub,2013-07-12 10:51:00,
2013-07-12 05:57:00,76.3,72.1,29.87,SE,144,0.0,2.0,87,0.00,,,0.00,meteohub,2013-07-12 10:57:00,
2013-07-12 06:02:00,76.3,72.1,29.87,SE,144,0.0,2.0,87,0.00,,,0.00,meteohub,2013-07-12 11:02:00,
2013-07-12 06:07:00,75.9,71.8,29.87,SE,144,0.0,2.0,87,0.00,,,0.00,meteohub,2013-07-12 11:07:00,
2013-07-12 06:12:00,75.9,71.8,29.87,SE,144,0.0,2.0,87,0.00,,,0.00,meteohub,2013-07-12 11:12:00,
2013-07-12 06:17:00,76.1,72.0,29.87,SE,144,0.0,2.0,87,0.00,,,0.00,meteohub,2013-07-12 11:17:00,
2013-07-12 06:22:00,75.9,71.8,29.87,SE,144,0.0,2.0,87,0.00,,,0.00,meteohub,2013-07-12 11:22:00,
2013-07-12 06:27:00,75.7,71.6,29.87,SE,144,0.0,2.0,87,0.00,,,0.00,meteohub,2013-07-12 11:27:00,
2013-07-12 06:32:00,75.7,72.0,29.88,SE,144,0.0,2.0,88,0.00,,,0.00,meteohub,2013-07-12 11:32:00,
2013-07-12 06:37:00,75.7,72.0,29.88,SE,144,0.0,2.0,88,0.00,,,0.00,meteohub,2013-07-12 11:37:00,
2013-07-12 06:42:00,75.7,72.0,29.88,SE,144,0.0,2.0,88,0.00,,,0.00,meteohub,2013-07-12 11:42:00,
2013-07-12 06:47:00,75.6,71.8,29.88,SE,144,0.0,2.0,88,0.00,,,0.00,meteohub,2013-07-12 11:47:00,
2013-07-12 06:52:00,75.7,72.0,29.89,SE,144,0.0,2.0,88,0.00,,,0.00,meteohub,2013-07-12 11:52:00,
2013-07-12 06:57:00,75.9,72.5,29.89,ESE,106,0.0,1.0,89,0.00,,,0.00,meteohub,2013-07-12 11:57:00,
2013-07-12 07:03:00,75.9,72.5,29.89,ESE,106,0.0,1.0,89,0.00,,,0.00,meteohub,2013-07-12 12:03:00,
2013-07-12 07:08:00,75.9,72.5,29.89,ESE,106,0.0,1.0,89,0.00,,,0.00,meteohub,2013-07-12 12:08:00,
2013-07-12 07:13:00,76.3,72.5,29.89,ESE,106,0.0,1.0,88,0.00,,,0.00,meteohub,2013-07-12 12:13:00,
2013-07-12 07:19:00,76.6,72.5,29.89,ESE,109,0.0,1.0,87,0.00,,,0.00,meteohub,2013-07-12 12:19:00,
2013-07-12 07:24:00,76.8,72.7,29.90,ESE,105,0.0,1.0,87,0.00,,,0.00,meteohub,2013-07-12 12:24:00,
2013-07-12 07:30:00,77.4,73.2,29.90,ESE,104,0.0,3.0,87,0.00,,,0.00,meteohub,2013-07-12 12:30:00,
2013-07-12 07:35:00,77.5,73.0,29.90,ESE,107,0.0,3.0,86,0.00,,,0.00,meteohub,2013-07-12 12:35:00,
2013-07-12 07:40:00,77.7,73.2,29.90,ESE,109,1.0,3.0,86,0.00,,,0.00,meteohub,2013-07-12 12:40:00,
2013-07-12 07:46:00,78.3,73.4,29.90,SE,128,0.0,3.0,85,0.00,,,0.00,meteohub,2013-07-12 12:46:00,
2013-07-12 07:51:00,78.6,73.4,29.90,ESE,119,4.0,4.0,84,0.00,,,0.00,meteohub,2013-07-12 12:51:00,
2013-07-12 07:57:00,78.8,73.2,29.91,East,84,0.0,6.0,83,0.00,,,0.00,meteohub,2013-07-12 12:57:00,
2013-07-12 08:02:00,79.2,73.2,29.91,ESE,119,2.0,6.0,82,0.00,,,0.00,meteohub,2013-07-12 13:02:00,
2013-07-12 08:07:00,79.3,73.4,29.91,SE,126,1.0,6.0,82,0.00,,,0.00,meteohub,2013-07-12 13:07:00,
2013-07-12 08:12:00,79.5,73.2,29.91,ESE,109,0.0,6.0,81,0.00,,,0.00,meteohub,2013-07-12 13:12:00,
2013-07-12 08:17:00,79.9,73.2,29.91,East,90,3.0,6.0,80,0.00,,,0.00,meteohub,2013-07-12 13:17:00,
2013-07-12 08:23:00,80.1,73.4,29.91,East,80,2.0,6.0,80,0.00,,,0.00,meteohub,2013-07-12 13:23:00,
2013-07-12 08:28:00,80.2,73.0,29.91,ESE,107,8.0,8.0,79,0.00,,,0.00,meteohub,2013-07-12 13:28:00,
2013-07-12 08:33:00,80.6,73.4,29.91,East,101,2.0,7.0,79,0.00,,,0.00,meteohub,2013-07-12 13:33:00,
2013-07-12 08:39:00,80.6,73.4,29.91,SE,131,1.0,7.0,79,0.00,,,0.00,meteohub,2013-07-12 13:39:00,
2013-07-12 08:44:00,81.0,73.8,29.92,ESE,111,3.0,7.0,79,0.00,,,0.00,meteohub,2013-07-12 13:44:00,
2013-07-12 08:49:00,81.1,73.9,29.91,ESE,105,1.0,8.0,79,0.00,,,0.00,meteohub,2013-07-12 13:49:00,
2013-07-12 08:55:00,81.1,73.6,29.91,ESE,105,4.0,8.0,78,0.00,,,0.00,meteohub,2013-07-12 13:55:00,
2013-07-12 09:00:00,81.7,73.8,29.92,SE,132,0.0,8.0,77,0.00,,,0.00,meteohub,2013-07-12 14:00:00,
2013-07-12 09:05:00,82.0,74.1,29.92,SE,139,5.0,8.0,77,0.00,,,0.00,meteohub,2013-07-12 14:05:00,
2013-07-12 09:11:00,82.2,73.9,29.92,SE,124,0.0,8.0,76,0.00,,,0.00,meteohub,2013-07-12 14:11:00,
2013-07-12 09:16:00,82.4,74.1,29.92,ENE,57,0.0,8.0,76,0.00,,,0.00,meteohub,2013-07-12 14:16:00,
2013-07-12 09:21:00,82.9,74.7,29.92,East,93,0.0,8.0,76,0.00,,,0.00,meteohub,2013-07-12 14:21:00,
2013-07-12 09:27:00,83.1,73.9,29.92,ESE,102,3.0,8.0,74,0.00,,,0.00,meteohub,2013-07-12 14:27:00,
2013-07-12 09:32:00,83.3,74.1,29.92,SSE,165,3.0,5.0,74,0.00,,,0.00,meteohub,2013-07-12 14:32:00,
2013-07-12 09:37:00,83.1,73.6,29.92,SSE,153,0.0,5.0,73,0.00,,,0.00,meteohub,2013-07-12 14:37:00,
2013-07-12 09:42:00,83.7,73.6,29.92,SE,130,0.0,5.0,72,0.00,,,0.00,meteohub,2013-07-12 14:42:00,
2013-07-12 09:47:00,83.8,73.8,29.92,SW,216,2.0,5.0,72,0.00,,,0.00,meteohub,2013-07-12 14:47:00,
2013-07-12 09:52:00,84.0,73.6,29.92,SSE,164,3.0,8.0,71,0.00,,,0.00,meteohub,2013-07-12 14:52:00,
2013-07-12 09:57:00,84.6,73.8,29.92,ESE,122,7.0,8.0,70,0.00,,,0.00,meteohub,2013-07-12 14:57:00,
2013-07-12 10:03:00,84.7,73.9,29.91,South,169,3.0,8.0,70,0.00,,,0.00,meteohub,2013-07-12 15:03:00,
2013-07-12 10:08:00,85.5,74.1,29.91,SE,136,1.0,8.0,69,0.00,,,0.00,meteohub,2013-07-12 15:08:00,
2013-07-12 10:13:00,85.5,74.1,29.91,SW,221,1.0,8.0,69,0.00,,,0.00,meteohub,2013-07-12 15:13:00,
2013-07-12 10:19:00,85.8,73.9,29.91,SSE,148,0.0,7.0,68,0.00,,,0.00,meteohub,2013-07-12 15:19:00,
2013-07-12 10:24:00,86.2,73.9,29.91,South,177,0.0,7.0,67,0.00,,,0.00,meteohub,2013-07-12 15:24:00,
2013-07-12 10:29:00,86.7,73.9,29.91,SSE,148,4.0,7.0,66,0.00,,,0.00,meteohub,2013-07-12 15:29:00,
2013-07-12 10:35:00,86.9,74.7,29.91,SSE,148,2.0,7.0,67,0.00,,,0.00,meteohub,2013-07-12 15:35:00,
2013-07-12 10:40:00,87.1,73.9,29.91,SSE,160,1.0,7.0,65,0.00,,,0.00,meteohub,2013-07-12 15:40:00,
2013-07-12 10:45:00,88.0,74.7,29.91,SSW,195,3.0,7.0,65,0.00,,,0.00,meteohub,2013-07-12 15:45:00,
2013-07-12 10:51:00,88.5,74.8,29.91,South,176,2.0,7.0,64,0.00,,,0.00,meteohub,2013-07-12 15:51:00,
2013-07-12 10:56:00,88.5,73.8,29.91,SE,138,0.0,7.0,62,0.00,,,0.00,meteohub,2013-07-12 15:56:00,
2013-07-12 11:01:00,88.9,75.2,29.91,SSW,202,0.0,7.0,64,0.00,,,0.00,meteohub,2013-07-12 16:01:00,
2013-07-12 11:07:00,89.2,73.9,29.91,South,188,6.0,7.0,61,0.00,,,0.00,meteohub,2013-07-12 16:07:00,
2013-07-12 11:12:00,90.0,74.7,29.91,SSW,200,1.0,7.0,61,0.00,,,0.00,meteohub,2013-07-12 16:12:00,
2013-07-12 11:17:00,90.3,74.5,29.91,SSW,192,7.0,7.0,60,0.00,,,0.00,meteohub,2013-07-12 16:17:00,
2013-07-12 11:22:00,91.0,74.1,29.91,SSW,200,2.0,7.0,58,0.00,,,0.00,meteohub,2013-07-12 16:22:00,
2013-07-12 11:27:00,91.2,74.3,29.91,ESE,122,2.0,9.0,58,0.00,,,0.00,meteohub,2013-07-12 16:27:00,
2013-07-12 11:32:00,91.2,74.3,29.91,SW,229,0.0,9.0,58,0.00,,,0.00,meteohub,2013-07-12 16:32:00,
2013-07-12 11:37:00,91.6,74.1,29.91,ESE,115,3.0,9.0,57,0.00,,,0.00,meteohub,2013-07-12 16:37:00,
2013-07-12 11:42:00,92.1,76.3,29.91,ESE,105,2.0,9.0,60,0.00,,,0.00,meteohub,2013-07-12 16:42:00,
2013-07-12 11:47:00,93.0,75.0,29.91,SE,128,5.0,9.0,56,0.00,,,0.00,meteohub,2013-07-12 16:47:00,
2013-07-12 11:53:00,92.5,75.0,29.91,SE,138,1.0,7.0,57,0.00,,,0.00,meteohub,2013-07-12 16:53:00,
2013-07-12 11:58:00,93.0,76.1,29.91,SE,134,4.0,7.0,58,0.00,,,0.00,meteohub,2013-07-12 16:58:00,
2013-07-12 12:05:00,93.6,75.6,29.90,SSW,203,3.0,7.0,56,0.00,,,0.00,meteohub,2013-07-12 17:05:00,
2013-07-12 12:10:00,93.0,75.6,29.90,ESE,117,1.0,9.0,57,0.00,,,0.00,meteohub,2013-07-12 17:10:00,
2013-07-12 12:15:00,93.4,75.9,29.90,ESE,113,0.0,9.0,57,0.00,,,0.00,meteohub,2013-07-12 17:15:00,
2013-07-12 12:20:00,94.6,76.5,29.90,SSW,195,7.0,9.0,56,0.00,,,0.00,meteohub,2013-07-12 17:20:00,
2013-07-12 12:28:00,94.6,75.4,29.89,SSW,207,5.0,9.0,54,0.00,,,0.00,meteohub,2013-07-12 17:28:00,
2013-07-12 12:33:00,94.8,74.5,29.89,SSW,203,5.0,9.0,52,0.00,,,0.00,meteohub,2013-07-12 17:33:00,
2013-07-12 12:39:00,95.7,75.9,29.89,South,180,4.0,10.0,53,0.00,,,0.00,meteohub,2013-07-12 17:39:00,
2013-07-12 12:45:00,95.9,75.4,29.89,SE,128,6.0,10.0,52,0.00,,,0.00,meteohub,2013-07-12 17:45:00,
2013-07-12 12:50:00,96.4,76.5,29.89,SSE,162,4.0,10.0,53,0.00,,,0.00,meteohub,2013-07-12 17:50:00,
2013-07-12 12:55:00,96.8,76.3,29.89,SSE,156,7.0,10.0,52,0.00,,,0.00,meteohub,2013-07-12 17:55:00,
2013-07-12 13:00:00,96.6,73.8,29.89,SSE,153,2.0,10.0,48,0.00,,,0.00,meteohub,2013-07-12 18:00:00,
2013-07-12 13:06:00,96.6,74.3,29.89,ESE,105,0.0,10.0,49,0.00,,,0.00,meteohub,2013-07-12 18:06:00,
2013-07-12 13:12:00,97.3,75.0,29.89,SSE,164,4.0,10.0,49,0.00,,,0.00,meteohub,2013-07-12 18:12:00,
2013-07-12 13:17:00,97.2,75.4,29.89,SSE,160,3.0,10.0,50,0.00,,,0.00,meteohub,2013-07-12 18:17:00,
2013-07-12 13:22:00,97.5,74.5,29.88,SSW,198,7.0,10.0,48,0.00,,,0.00,meteohub,2013-07-12 18:22:00,
2013-07-12 13:28:00,98.1,75.0,29.88,ESE,123,3.0,10.0,48,0.00,,,0.00,meteohub,2013-07-12 18:28:00,
2013-07-12 13:34:00,98.2,74.5,29.88,SE,134,1.0,10.0,47,0.00,,,0.00,meteohub,2013-07-12 18:34:00,
2013-07-12 13:40:00,98.2,73.9,29.88,ENE,63,2.0,10.0,46,0.00,,,0.00,meteohub,2013-07-12 18:40:00,
2013-07-12 13:45:00,97.3,72.5,29.88,SE,141,3.0,10.0,45,0.00,,,0.00,meteohub,2013-07-12 18:45:00,
2013-07-12 13:49:00,98.2,73.9,29.88,South,189,3.0,10.0,46,0.00,,,0.00,meteohub,2013-07-12 18:49:00,
2013-07-12 13:52:00,98.4,74.7,29.88,SSW,212,7.0,10.0,47,0.00,,,0.00,meteohub,2013-07-12 18:52:00,
2013-07-12 14:00:00,98.4,74.1,29.88,South,169,4.0,10.0,46,0.00,,,0.00,meteohub,2013-07-12 19:00:00,
2013-07-12 14:05:00,99.3,74.8,29.87,SW,215,4.0,11.0,46,0.00,,,0.00,meteohub,2013-07-12 19:05:00,
2013-07-12 14:12:00,100.2,75.7,29.87,SSW,207,0.0,11.0,46,0.00,,,0.00,meteohub,2013-07-12 19:12:00,
2013-07-12 14:17:00,99.9,75.4,29.87,SSE,150,4.0,11.0,46,0.00,,,0.00,meteohub,2013-07-12 19:17:00,
2013-07-12 14:22:00,99.9,74.7,29.87,SE,135,3.0,11.0,45,0.00,,,0.00,meteohub,2013-07-12 19:22:00,
2013-07-12 14:27:00,100.4,73.2,29.87,SSE,161,2.0,11.0,42,0.00,,,0.00,meteohub,2013-07-12 19:27:00,
2013-07-12 14:32:00,100.8,74.8,29.87,SSE,163,2.0,7.0,44,0.00,,,0.00,meteohub,2013-07-12 19:32:00,
2013-07-12 14:37:00,100.0,73.6,29.87,SSE,167,0.0,7.0,43,0.00,,,0.00,meteohub,2013-07-12 19:37:00,
2013-07-12 14:42:00,99.1,72.7,29.87,ESE,110,5.0,7.0,43,0.00,,,0.00,meteohub,2013-07-12 19:42:00,
2013-07-12 14:47:00,99.3,73.6,29.86,SE,129,4.0,7.0,44,0.00,,,0.00,meteohub,2013-07-12 19:47:00,
2013-07-12 14:53:00,99.7,72.5,29.86,SSE,165,0.0,7.0,42,0.00,,,0.00,meteohub,2013-07-12 19:53:00,
2013-07-12 14:59:00,100.2,72.3,29.86,ESE,103,3.0,10.0,41,0.00,,,0.00,meteohub,2013-07-12 19:59:00,
2013-07-12 15:04:00,99.5,73.8,29.86,South,180,6.0,10.0,44,0.00,,,0.00,meteohub,2013-07-12 20:04:00,
2013-07-12 15:09:00,100.0,71.4,29.86,ENE,76,8.0,10.0,40,0.00,,,0.00,meteohub,2013-07-12 20:09:00,
2013-07-12 15:15:00,99.9,72.7,29.86,SSE,153,6.0,10.0,42,0.00,,,0.00,meteohub,2013-07-12 20:15:00,
2013-07-12 15:20:00,99.9,72.7,29.86,ESE,122,1.0,10.0,42,0.00,,,0.00,meteohub,2013-07-12 20:20:00,
2013-07-12 15:30:00,99.3,72.1,29.86,South,173,2.0,9.0,42,0.00,,,0.00,meteohub,2013-07-12 20:30:00,
2013-07-12 15:35:00,100.9,72.9,29.85,SE,139,6.0,9.0,41,0.00,,,0.00,meteohub,2013-07-12 20:35:00,
2013-07-12 15:40:00,101.1,73.0,29.86,South,179,3.0,9.0,41,0.00,,,0.00,meteohub,2013-07-12 20:40:00,
2013-07-12 15:46:00,100.9,71.4,29.85,East,98,0.0,9.0,39,0.00,,,0.00,meteohub,2013-07-12 20:46:00,
2013-07-12 15:51:00,100.8,71.2,29.85,ENE,65,2.0,9.0,39,0.00,,,0.00,meteohub,2013-07-12 20:51:00,
2013-07-12 15:57:00,101.1,73.0,29.85,South,191,3.0,9.0,41,0.00,,,0.00,meteohub,2013-07-12 20:57:00,
2013-07-12 16:02:00,100.2,71.6,29.84,SE,132,1.0,10.0,40,0.00,,,0.00,meteohub,2013-07-12 21:02:00,
2013-07-12 16:07:00,100.6,71.1,29.84,SSW,199,7.0,10.0,39,0.00,,,0.00,meteohub,2013-07-12 21:07:00,
2013-07-12 16:12:00,101.3,73.2,29.84,SW,220,6.0,10.0,41,0.00,,,0.00,meteohub,2013-07-12 21:12:00,
2013-07-12 16:17:00,101.7,72.1,29.84,South,182,6.0,10.0,39,0.00,,,0.00,meteohub,2013-07-12 21:17:00,
2013-07-12 16:23:00,100.9,71.4,29.84,South,172,2.0,10.0,39,0.00,,,0.00,meteohub,2013-07-12 21:23:00,
2013-07-12 16:28:00,100.6,71.1,29.84,SSW,203,1.0,11.0,39,0.00,,,0.00,meteohub,2013-07-12 21:28:00,
2013-07-12 16:34:00,100.2,73.0,29.83,SSE,151,0.0,11.0,42,0.00,,,0.00,meteohub,2013-07-12 21:34:00,
2013-07-12 16:39:00,100.9,71.4,29.83,SSW,198,0.0,11.0,39,0.00,,,0.00,meteohub,2013-07-12 21:39:00,
2013-07-12 16:44:00,101.1,72.3,29.83,ESE,117,2.0,11.0,40,0.00,,,0.00,meteohub,2013-07-12 21:44:00,
2013-07-12 16:50:00,100.9,70.7,29.83,ESE,116,2.0,8.0,38,0.00,,,0.00,meteohub,2013-07-12 21:50:00,
2013-07-12 16:55:00,100.8,71.2,29.83,SE,130,2.0,8.0,39,0.00,,,0.00,meteohub,2013-07-12 21:55:00,
2013-07-12 17:00:00,100.6,70.3,29.83,ENE,74,2.0,8.0,38,0.00,,,0.00,meteohub,2013-07-12 22:00:00,
2013-07-12 17:06:00,101.1,70.9,29.83,ESE,109,0.0,8.0,38,0.00,,,0.00,meteohub,2013-07-12 22:06:00,
2013-07-12 17:11:00,100.8,69.8,29.83,South,180,6.0,8.0,37,0.00,,,0.00,meteohub,2013-07-12 22:11:00,
2013-07-12 17:16:00,100.6,70.3,29.83,SSW,196,5.0,8.0,38,0.00,,,0.00,meteohub,2013-07-12 22:16:00,
2013-07-12 17:22:00,100.8,69.8,29.83,SE,126,4.0,9.0,37,0.00,,,0.00,meteohub,2013-07-12 22:22:00,
2013-07-12 17:27:00,100.0,70.7,29.83,NNE,32,2.0,9.0,39,0.00,,,0.00,meteohub,2013-07-12 22:27:00,
2013-07-12 17:32:00,100.0,69.1,29.83,South,172,0.0,9.0,37,0.00,,,0.00,meteohub,2013-07-12 22:32:00,
2013-07-12 17:37:00,100.4,70.2,29.83,SE,131,2.0,8.0,38,0.00,,,0.00,meteohub,2013-07-12 22:37:00,
2013-07-12 17:42:00,100.6,69.6,29.83,SE,128,3.0,8.0,37,0.00,,,0.00,meteohub,2013-07-12 22:42:00,
2013-07-12 17:48:00,100.2,70.7,29.83,ENE,57,4.0,8.0,39,0.00,,,0.00,meteohub,2013-07-12 22:48:00,
2013-07-12 17:53:00,100.0,70.7,29.82,ESE,110,1.0,7.0,39,0.00,,,0.00,meteohub,2013-07-12 22:53:00,
2013-07-12 17:58:00,99.9,70.5,29.82,SSE,161,1.0,7.0,39,0.00,,,0.00,meteohub,2013-07-12 22:58:00,
2013-07-12 18:04:00,99.9,69.6,29.82,SW,217,5.0,7.0,38,0.00,,,0.00,meteohub,2013-07-12 23:04:00,
2013-07-12 18:11:00,99.9,68.9,29.81,SE,132,2.0,8.0,37,0.00,,,0.00,meteohub,2013-07-12 23:11:00,
2013-07-12 18:16:00,99.1,69.8,29.81,SE,124,2.0,8.0,39,0.00,,,0.00,meteohub,2013-07-12 23:16:00,
2013-07-12 18:22:00,99.1,70.5,29.81,SE,134,1.0,11.0,40,0.00,,,0.00,meteohub,2013-07-12 23:22:00,
2013-07-12 18:29:00,99.1,71.2,29.81,ENE,76,5.0,11.0,41,0.00,,,0.00,meteohub,2013-07-12 23:29:00,
2013-07-12 18:35:00,99.0,71.1,29.81,East,84,1.0,11.0,41,0.00,,,0.00,meteohub,2013-07-12 23:35:00,
2013-07-12 18:42:00,98.4,70.0,29.81,ESE,105,7.0,11.0,40,0.00,,,0.00,meteohub,2013-07-12 23:42:00,
2013-07-12 18:47:00,98.2,71.2,29.81,SE,134,1.0,10.0,42,0.00,,,0.00,meteohub,2013-07-12 23:47:00,
2013-07-12 18:52:00,98.1,70.3,29.81,SSE,168,1.0,10.0,41,0.00,,,0.00,meteohub,2013-07-12 23:52:00,
2013-07-12 18:57:00,98.1,71.8,29.81,SE,134,0.0,10.0,43,0.00,,,0.00,meteohub,2013-07-12 23:57:00,
2013-07-12 19:02:00,98.1,71.1,29.81,SE,132,3.0,11.0,42,0.00,,,0.00,meteohub,2013-07-13 00:02:00,
2013-07-12 19:12:00,97.7,70.7,29.81,ENE,69,4.0,11.0,42,0.00,,,0.00,meteohub,2013-07-13 00:12:00,
2013-07-12 19:17:00,97.7,71.4,29.81,East,94,2.0,11.0,43,0.00,,,0.00,meteohub,2013-07-13 00:17:00,
2013-07-12 19:22:00,97.5,71.2,29.81,East,99,1.0,9.0,43,0.00,,,0.00,meteohub,2013-07-13 00:22:00,
2013-07-12 19:27:00,97.3,71.1,29.81,ENE,57,1.0,9.0,43,0.00,,,0.00,meteohub,2013-07-13 00:27:00,
2013-07-12 19:32:00,97.0,71.4,29.82,SE,126,2.0,9.0,44,0.00,,,0.00,meteohub,2013-07-13 00:32:00,
2013-07-12 19:37:00,96.8,72.0,29.82,ESE,115,7.0,9.0,45,0.00,,,0.00,meteohub,2013-07-13 00:37:00,
2013-07-12 19:43:00,96.6,71.8,29.82,ESE,107,3.0,9.0,45,0.00,,,0.00,meteohub,2013-07-13 00:43:00,
2013-07-12 19:49:00,96.4,71.6,29.82,SE,131,5.0,11.0,45,0.00,,,0.00,meteohub,2013-07-13 00:49:00,
2013-07-12 19:54:00,96.1,71.2,29.82,ENE,78,5.0,11.0,45,0.00,,,0.00,meteohub,2013-07-13 00:54:00,
2013-07-12 19:59:00,95.7,70.9,29.82,SE,130,0.0,8.0,45,0.00,,,0.00,meteohub,2013-07-13 00:59:00,
2013-07-12 20:05:00,95.7,70.9,29.82,East,83,1.0,8.0,45,0.00,,,0.00,meteohub,2013-07-13 01:05:00,
2013-07-12 20:10:00,95.4,71.2,29.82,ENE,78,0.0,8.0,46,0.00,,,0.00,meteohub,2013-07-13 01:10:00,
2013-07-12 20:17:00,94.8,71.4,29.82,East,90,1.0,7.0,47,0.00,,,0.00,meteohub,2013-07-13 01:17:00,
2013-07-12 20:22:00,94.6,71.2,29.82,ENE,63,0.0,7.0,47,0.00,,,0.00,meteohub,2013-07-13 01:22:00,
2013-07-12 20:27:00,94.5,71.1,29.82,ENE,73,0.0,7.0,47,0.00,,,0.00,meteohub,2013-07-13 01:27:00,
2013-07-12 20:32:00,94.1,70.7,29.82,ESE,111,3.0,4.0,47,0.00,,,0.00,meteohub,2013-07-13 01:32:00,
2013-07-12 20:37:00,93.7,70.5,29.82,SE,125,0.0,4.0,47,0.00,,,0.00,meteohub,2013-07-13 01:37:00,
2013-07-12 20:42:00,93.6,70.9,29.82,East,83,0.0,4.0,48,0.00,,,0.00,meteohub,2013-07-13 01:42:00,
2013-07-12 20:47:00,93.4,70.7,29.82,ESE,107,0.0,7.0,48,0.00,,,0.00,meteohub,2013-07-13 01:47:00,
2013-07-12 20:54:00,93.0,71.1,29.82,ESE,106,1.0,7.0,49,0.00,,,0.00,meteohub,2013-07-13 01:54:00,
2013-07-12 21:00:00,92.8,70.9,29.82,East,90,0.0,5.0,49,0.00,,,0.00,meteohub,2013-07-13 02:00:00,
2013-07-12 21:05:00,92.5,70.5,29.83,East,79,0.0,5.0,49,0.00,,,0.00,meteohub,2013-07-13 02:05:00,
2013-07-12 21:11:00,92.5,70.5,29.83,East,79,0.0,5.0,49,0.00,,,0.00,meteohub,2013-07-13 02:11:00,
2013-07-12 21:17:00,91.9,70.7,29.83,ENE,58,0.0,6.0,50,0.00,,,0.00,meteohub,2013-07-13 02:17:00,
2013-07-12 21:22:00,91.8,70.5,29.83,East,99,1.0,6.0,50,0.00,,,0.00,meteohub,2013-07-13 02:22:00,
2013-07-12 21:27:00,91.4,70.7,29.83,East,88,2.0,4.0,51,0.00,,,0.00,meteohub,2013-07-13 02:27:00,
2013-07-12 21:33:00,91.2,70.5,29.83,ESE,107,0.0,4.0,51,0.00,,,0.00,meteohub,2013-07-13 02:33:00,
2013-07-12 21:40:00,91.0,70.3,29.83,East,96,0.0,4.0,51,0.00,,,0.00,meteohub,2013-07-13 02:40:00,
2013-07-12 21:46:00,91.0,70.3,29.84,ESE,113,3.0,4.0,51,0.00,,,0.00,meteohub,2013-07-13 02:46:00,
2013-07-12 21:53:00,90.7,70.7,29.84,East,100,0.0,4.0,52,0.00,,,0.00,meteohub,2013-07-13 02:53:00,
2013-07-12 22:01:00,90.3,70.9,29.84,ESE,114,0.0,4.0,53,0.00,,,0.00,meteohub,2013-07-13 03:01:00,
2013-07-12 22:06:00,90.1,70.7,29.84,ENE,78,1.0,4.0,53,0.00,,,0.00,meteohub,2013-07-13 03:06:00,
2013-07-12 22:12:00,90.0,71.1,29.84,East,90,1.0,4.0,54,0.00,,,0.00,meteohub,2013-07-13 03:12:00,
2013-07-12 22:17:00,90.0,71.1,29.84,ENE,75,1.0,5.0,54,0.00,,,0.00,meteohub,2013-07-13 03:17:00,
2013-07-12 22:22:00,89.8,70.9,29.85,ESE,104,1.0,5.0,54,0.00,,,0.00,meteohub,2013-07-13 03:22:00,
2013-07-12 22:27:00,89.8,71.4,29.85,SSE,153,3.0,5.0,55,0.00,,,0.00,meteohub,2013-07-13 03:27:00,
2013-07-12 22:32:00,89.8,70.9,29.85,ESE,115,1.0,6.0,54,0.00,,,0.00,meteohub,2013-07-13 03:32:00,
2013-07-12 22:37:00,89.6,71.2,29.85,SE,127,4.0,6.0,55,0.00,,,0.00,meteohub,2013-07-13 03:37:00,
2013-07-12 22:42:00,89.4,71.1,29.86,ENE,69,3.0,6.0,55,0.00,,,0.00,meteohub,2013-07-13 03:42:00,
2013-07-12 22:47:00,89.4,71.1,29.86,ESE,102,1.0,8.0,55,0.00,,,0.00,meteohub,2013-07-13 03:47:00,
2013-07-12 22:52:00,89.2,71.4,29.86,SE,129,4.0,8.0,56,0.00,,,0.00,meteohub,2013-07-13 03:52:00,
2013-07-12 22:57:00,89.1,71.8,29.86,ENE,66,8.0,8.0,57,0.00,,,0.00,meteohub,2013-07-13 03:57:00,
2013-07-12 23:01:00,89.2,71.4,29.86,East,97,1.0,8.0,56,0.00,,,0.00,meteohub,2013-07-13 04:01:00,
2013-07-12 23:03:00,88.9,71.6,29.86,SE,146,7.0,8.0,57,0.00,,,0.00,meteohub,2013-07-13 04:03:00,
2013-07-12 23:05:00,88.9,71.6,29.86,ESE,117,8.0,8.0,57,0.00,,,0.00,meteohub,2013-07-13 04:05:00,
2013-07-12 23:09:00,88.9,71.6,29.86,SE,134,3.0,8.0,57,0.00,,,0.00,meteohub,2013-07-13 04:09:00,
2013-07-12 23:14:00,88.7,71.4,29.86,ESE,123,3.0,8.0,57,0.00,,,0.00,meteohub,2013-07-13 04:14:00,
2013-07-12 23:19:00,88.3,71.6,29.86,NE,44,0.0,8.0,58,0.00,,,0.00,meteohub,2013-07-13 04:19:00,
2013-07-12 23:25:00,88.3,72.1,29.86,ESE,123,4.0,8.0,59,0.00,,,0.00,meteohub,2013-07-13 04:25:00,
2013-07-12 23:30:00,88.3,72.1,29.86,ESE,122,1.0,8.0,59,0.00,,,0.00,meteohub,2013-07-13 04:30:00,
2013-07-12 23:35:00,88.2,72.0,29.87,ENE,75,0.0,8.0,59,0.00,,,0.00,meteohub,2013-07-13 04:35:00,
2013-07-12 23:40:00,88.0,72.3,29.87,ENE,78,0.0,8.0,60,0.00,,,0.00,meteohub,2013-07-13 04:40:00,
2013-07-12 23:46:00,88.0,72.3,29.87,ESE,120,4.0,7.0,60,0.00,,,0.00,meteohub,2013-07-13 04:46:00,
2013-07-12 23:51:00,87.6,72.5,29.87,East,100,0.0,7.0,61,0.00,,,0.00,meteohub,2013-07-13 04:51:00,
2013-07-12 23:56:00,87.4,72.3,29.87,ESE,105,2.0,7.0,61,0.00,,,0.00,meteohub,2013-07-13 04:56:00,